Time,TemperatureF,DewpointF,PressureIn,WindDirection,WindDirectionDegrees,WindSpeedMPH,WindSpeedGustMPH,Humidity,HourlyPrecipIn,Conditions,Clouds,dailyrainin,SoftwareType,DateUTC
2014-02-05 00:29:00,20.6,12.4,30.28,NW,309,0.0,3.0,70,0.00,CLR,,0.00,WeatherDisplay:10.37,2014-02-05 06:29:00,
2014-02-05 00:59:00,20.3,12.1,30.30,NW,309,1.0,3.0,70,0.00,CLR,,0.00,WeatherDisplay:10.37,2014-02-05 06:59:00,
2014-02-05 01:29:00,20.5,12.6,30.29,NW,309,0.0,2.0,71,0.00,CLR,,0.00,WeatherDisplay:10.37,2014-02-05 07:29:00,
2014-02-05 01:59:00,19.1,12.2,30.34,NW,309,1.0,3.0,74,0.00,CLR,,0.00,WeatherDisplay:10.37,2014-02-05 07:59:00,
2014-02-05 02:29:00,19.1,11.6,30.15,NW,309,0.0,3.0,72,0.00,CLR,,0.00,WeatherDisplay:10.37,2014-02-05 08:29:00,
2014-02-05 02:59:00,18.4,10.9,30.16,NW,309,2.0,2.0,72,0.00,CLR,,0.00,WeatherDisplay:10.37,2014-02-05 08:59:00,
2014-02-05 03:29:00,18.3,12.0,30.16,NW,309,0.0,2.0,76,0.00,CLR,,0.00,WeatherDisplay:10.37,2014-02-05 09:29:00,
2014-02-05 03:59:00,17.8,11.5,30.16,NW,309,0.0,2.0,76,0.00,CLR,,0.00,WeatherDisplay:10.37,2014-02-05 09:59:00,
2014-02-05 04:29:00,17.5,11.8,30.17,NW,309,0.0,0.0,78,0.00,CLR,,0.00,WeatherDisplay:10.37,2014-02-05 10:29:00,
2014-02-05 04:59:00,18.1,12.7,30.17,NW,309,0.0,1.0,79,0.00,CLR,,0.00,WeatherDisplay:10.37,2014-02-05 10:59:00,
2014-02-05 05:29:00,19.4,13.7,30.19,NW,309,0.0,2.0,78,0.00,CLR,,0.00,WeatherDisplay:10.37,2014-02-05 11:29:00,
2014-02-05 05:59:00,18.9,13.5,30.19,NW,309,0.0,0.0,79,0.00,CLR,,0.00,WeatherDisplay:10.37,2014-02-05 11:59:00,
2014-02-05 06:29:00,19.1,13.7,30.21,NW,309,0.0,2.0,79,0.00,CLR,,0.00,WeatherDisplay:10.37,2014-02-05 12:29:00,
2014-02-05 06:59:00,19.1,13.9,30.22,NW,309,0.0,0.0,80,0.00,CLR,,0.00,WeatherDisplay:10.37,2014-02-05 12:59:00,
2014-02-05 07:29:00,19.4,14.2,30.23,NW,309,0.0,2.0,80,0.00,CLR,,0.00,WeatherDisplay:10.37,2014-02-05 13:29:00,
2014-02-05 07:59:00,23.3,18.6,30.22,East,97,0.0,6.0,82,0.00,CLR,,0.00,WeatherDisplay:10.37,2014-02-05 13:59:00,
2014-02-05 08:29:00,24.5,21.2,30.25,East,80,2.0,7.0,87,0.00,CLR,,0.00,WeatherDisplay:10.37,2014-02-05 14:29:00,
2014-02-05 08:59:00,24.3,21.5,30.27,ENE,73,2.0,6.0,89,0.00,CLR,,0.00,WeatherDisplay:10.37,2014-02-05 14:59:00,
2014-02-05 09:29:00,24.5,21.7,30.36,ENE,60,3.0,6.0,89,0.00,CLR,,0.00,WeatherDisplay:10.37,2014-02-05 15:29:00,
2014-02-05 09:59:00,25.1,22.1,30.34,East,85,5.0,8.0,88,0.00,CLR,,0.00,WeatherDisplay:10.37,2014-02-05 15:59:00,
2014-02-05 10:29:00,27.0,21.9,30.36,ENE,64,5.0,8.0,81,0.00,CLR,,0.00,WeatherDisplay:10.37,2014-02-05 16:29:00,
2014-02-05 10:59:00,29.1,21.8,30.34,East,79,5.0,9.0,74,0.00,CLR,,0.00,WeatherDisplay:10.37,2014-02-05 16:59:00,
2014-02-05 11:29:00,28.1,20.6,30.34,ENE,73,7.0,10.0,73,0.00,CLR,,0.00,WeatherDisplay:10.37,2014-02-05 17:29:00,
2014-02-05 12:00:00,29.1,20.9,30.34,ENE,60,2.0,12.0,71,0.00,CLR,,0.00,WeatherDisplay:10.37,2014-02-05 18:00:00,
2014-02-05 12:30:00,28.8,19.9,30.31,ENE,65,6.0,10.0,69,0.00,CLR,,0.00,WeatherDisplay:10.37,2014-02-05 18:30:00,
2014-02-05 13:00:00,28.7,19.8,30.28,ENE,66,3.0,12.0,69,0.00,CLR,,0.00,WeatherDisplay:10.37,2014-02-05 19:00:00,
2014-02-05 13:30:00,30.1,20.5,30.25,East,92,3.0,12.0,67,0.00,CLR,,0.00,WeatherDisplay:10.37,2014-02-05 19:30:00,
2014-02-05 14:00:00,28.7,18.1,30.24,NE,51,6.0,8.0,64,0.00,CLR,,0.00,WeatherDisplay:10.37,2014-02-05 20:00:00,
2014-02-05 14:30:00,27.9,17.3,30.22,NE,50,8.0,12.0,64,0.00,CLR,,0.00,WeatherDisplay:10.37,2014-02-05 20:30:00,
2014-02-05 15:00:00,27.6,18.8,30.25,SE,130,8.0,12.0,69,0.00,CLR,,0.00,WeatherDisplay:10.37,2014-02-05 21:00:00,
2014-02-05 15:30:00,27.8,18.3,30.25,East,92,5.0,13.0,67,0.00,CLR,,0.00,WeatherDisplay:10.37,2014-02-05 21:30:00,
2014-02-05 16:00:00,25.6,16.5,30.25,ENE,69,6.0,13.0,68,0.00,CLR,,0.00,WeatherDisplay:10.37,2014-02-05 22:00:00,
2014-02-05 16:30:00,25.3,15.9,30.26,ENE,60,5.0,12.0,67,0.00,CLR,,0.00,WeatherDisplay:10.37,2014-02-05 22:30:00,
2014-02-05 17:00:00,23.2,14.9,30.29,NE,56,3.0,12.0,70,0.00,CLR,,0.00,WeatherDisplay:10.37,2014-02-05 23:00:00,
2014-02-05 17:30:00,20.5,14.1,30.32,ENE,74,5.0,12.0,76,0.00,CLR,,0.00,WeatherDisplay:10.37,2014-02-05 23:30:00,
2014-02-05 18:00:00,19.4,13.7,30.34,ENE,76,3.0,8.0,78,0.00,CLR,,0.00,WeatherDisplay:10.37,2014-02-06 00:00:00,
2014-02-05 18:30:00,17.6,12.8,30.35,ENE,75,3.0,7.0,81,0.00,CLR,,0.00,WeatherDisplay:10.37,2014-02-06 00:30:00,
2014-02-05 19:00:00,17.0,13.0,30.35,ENE,69,3.0,8.0,84,0.00,CLR,,0.00,WeatherDisplay:10.37,2014-02-06 01:00:00,
2014-02-05 19:30:00,16.7,12.7,30.32,ENE,69,3.0,7.0,84,0.00,CLR,,0.00,WeatherDisplay:10.37,2014-02-06 01:30:00,
2014-02-05 20:00:00,16.5,12.5,30.34,ENE,69,1.0,7.0,84,0.00,CLR,,0.00,WeatherDisplay:10.37,2014-02-06 02:00:00,
2014-02-05 20:30:00,16.1,12.4,30.34,ENE,69,1.0,6.0,85,0.00,CLR,,0.00,WeatherDisplay:10.37,2014-02-06 02:30:00,
2014-02-05 21:00:00,16.1,12.4,30.34,ENE,69,2.0,5.0,85,0.00,CLR,,0.00,WeatherDisplay:10.37,2014-02-06 03:00:00,
2014-02-05 21:30:00,16.5,12.8,30.32,ENE,69,2.0,4.0,85,0.00,CLR,,0.00,WeatherDisplay:10.37,2014-02-06 03:30:00,
2014-02-05 22:00:00,17.2,13.2,30.32,ENE,69,2.0,5.0,84,0.00,CLR,,0.00,WeatherDisplay:10.37,2014-02-06 04:00:00,
2014-02-05 22:30:00,17.0,13.3,30.30,ENE,69,1.0,4.0,85,0.00,CLR,,0.00,WeatherDisplay:10.37,2014-02-06 04:30:00,
2014-02-05 23:00:00,18.0,14.3,30.31,NE,43,5.0,7.0,85,0.00,CLR,,0.00,WeatherDisplay:10.37,2014-02-06 05:00:00,
2014-02-05 23:30:00,18.7,14.7,30.28,ENE,72,5.0,7.0,84,0.00,CLR,,0.00,WeatherDisplay:10.37,2014-02-06 05:30:00,